| time (UTC) | temp F | wind direction | speed MPH | gust MPH | rain 1hr in | rain 24hr in | rain mn in | humidity % | barometer mb |
| 20260901071834 | 74 | 260 | 4.0 | 7.0 | 0.00 | 0.06 | 0.06 | 98 | 1022.3 |
| 20260901071333 | 74 | 257 | 5.0 | 9.0 | 0.00 | 0.06 | 0.06 | 98 | 1022.2 |
| 20260901070833 | 74 | 260 | 5.0 | 9.0 | 0.00 | 0.06 | 0.06 | 98 | 1022.2 |
| 20260901070332 | 74 | 256 | 6.0 | 7.0 | 0.00 | 0.06 | 0.06 | 98 | 1022.1 |
| 20260901065827 | 74 | 256 | 5.0 | 9.0 | 0.00 | 0.06 | 0.06 | 98 | 1022.1 |
| 20260901065322 | 74 | 242 | 6.0 | 9.0 | 0.00 | 0.06 | 0.06 | 98 | 1022.1 |
| 20260901064817 | 74 | 233 | 6.0 | 11.0 | 0.00 | 0.06 | 0.06 | 98 | 1022.2 |
| 20260901064318 | 74 | 257 | 7.0 | 11.0 | 0.00 | 0.06 | 0.06 | 98 | 1022.1 |
| 20260901063912 | 74 | 251 | 6.0 | 11.0 | 0.00 | 0.06 | 0.06 | 98 | 1022.0 |
| 20260901062811 | 74 | 240 | 6.0 | 7.0 | 0.00 | 0.06 | 0.06 | 98 | 1022.1 |
| 20260901062311 | 74 | 242 | 3.0 | 10.0 | 0.00 | 0.06 | 0.06 | 98 | 1022.1 |
| 20260901061808 | 74 | 247 | 5.0 | 10.0 | 0.00 | 0.06 | 0.06 | 98 | 1022.1 |
| 20260901061305 | 74 | 280 | 5.0 | 7.0 | 0.00 | 0.06 | 0.06 | 98 | 1022.2 |
| 20260901061121 | 74 | 268 | 5.0 | 7.0 | 0.00 | 0.06 | 0.06 | 98 | 1022.2 |
| 20260901060647 | 74 | 284 | 3.0 | 6.0 | 0.00 | 0.06 | 0.06 | 98 | 1022.2 |
| 20260901055802 | 74 | 287 | 4.0 | 7.0 | 0.00 | 0.06 | 0.06 | 98 | 1022.3 |
| 20260901055306 | 74 | 274 | 4.0 | 7.0 | 0.00 | 0.06 | 0.06 | 98 | 1022.3 |
| 20260901054802 | 73 | 277 | 5.0 | 7.0 | 0.03 | 0.06 | 0.06 | 98 | 1022.3 |
| 20260901054303 | 73 | 281 | 4.0 | 7.0 | 0.06 | 0.06 | 0.06 | 98 | 1022.2 |
| 20260901053902 | 73 | 296 | 4.0 | 7.0 | 0.06 | 0.06 | 0.06 | 98 | 1022.3 |
| 20260901052757 | 73 | 273 | 5.0 | 10.0 | 0.06 | 0.06 | 0.06 | 98 | 1022.2 |
| 20260901052256 | 73 | 277 | 6.0 | 10.0 | 0.06 | 0.06 | 0.06 | 98 | 1022.2 |
| 20260901051757 | 73 | 268 | 6.0 | 11.0 | 0.06 | 0.06 | 0.06 | 98 | 1022.2 |
| 20260901051255 | 73 | 275 | 7.0 | 13.0 | 0.06 | 0.06 | 0.06 | 98 | 1022.2 |
| 20260901050758 | 73 | 270 | 8.0 | 14.0 | 0.06 | 0.06 | 0.06 | 98 | 1022.2 |
| 20260901050309 | 74 | 270 | 9.0 | 14.0 | 0.06 | 0.06 | 0.06 | 98 | 1022.1 |
| 20260901050126 | 74 | 261 | 10.0 | 15.0 | 0.06 | 0.00 | 0.06 | 98 | 1022.1 |
| 20260901045555 | 74 | 301 | 10.0 | 15.0 | 0.06 | 0.00 | 0.06 | 98 | 1022.0 |
| 20260901044739 | 74 | 212 | 9.0 | 15.0 | 0.02 | 0.00 | 0.02 | 98 | 1022.0 |
| 20260901044237 | 75 | 227 | 12.0 | 16.0 | 0.00 | 0.00 | 0.00 | 98 | 1022.1 |
| 20260901043737 | 75 | 236 | 11.0 | 16.0 | 0.00 | 0.00 | 0.00 | 98 | 1022.1 |
| 20260901043235 | 74 | 210 | 11.0 | 16.0 | 0.00 | 0.00 | 0.00 | 98 | 1022.0 |
| 20260901043053 | 74 | 258 | 8.0 | 13.0 | 0.00 | 0.00 | 0.00 | 98 | 1022.0 |
| 20260901042547 | 74 | 243 | 9.0 | 13.0 | 0.00 | 0.00 | 0.00 | 98 | 1022.0 |
| 20260901041730 | 75 | 240 | 9.0 | 14.0 | 0.00 | 0.00 | 0.00 | 98 | 1022.0 |
| 20260901041230 | 75 | 202 | 10.0 | 14.0 | 0.00 | 0.00 | 0.00 | 98 | 1022.2 |
| 20260901041040 | 75 | 205 | 11.0 | 16.0 | 0.00 | 0.00 | 0.00 | 98 | 1022.2 |
| 20260901040226 | 75 | 250 | 12.0 | 16.0 | 0.00 | 0.00 | 0.00 | 98 | 1022.1 |
| 20260901040035 | 75 | 208 | 9.0 | 14.0 | 0.00 | 0.00 | 0.00 | 98 | 1022.1 |
| 20260901035221 | 75 | 288 | 8.0 | 13.0 | 0.00 | 0.00 | 0.00 | 98 | 1022.3 |
| 20260901034723 | 75 | 298 | 4.0 | 12.0 | 0.00 | 0.00 | 0.00 | 98 | 1022.4 |
| 20260901034222 | 74 | 243 | 7.0 | 11.0 | 0.00 | 0.00 | 0.00 | 98 | 1022.3 |
| 20260901033720 | 74 | 233 | 5.0 | 10.0 | 0.00 | 0.00 | 0.00 | 98 | 1022.3 |
| 20260901033218 | 74 | 268 | 6.0 | 10.0 | 0.00 | 0.00 | 0.00 | 98 | 1022.4 |
| 20260901032715 | 74 | 256 | 5.0 | 9.0 | 0.00 | 0.00 | 0.00 | 98 | 1022.3 |
| 20260901032214 | 74 | 249 | 6.0 | 9.0 | 0.00 | 0.00 | 0.00 | 98 | 1022.4 |
| 20260901031708 | 74 | 251 | 4.0 | 7.0 | 0.00 | 0.00 | 0.00 | 98 | 1022.4 |
| 20260901031206 | 75 | 234 | 5.0 | 7.0 | 0.00 | 0.00 | 0.00 | 98 | 1022.4 |
| 20260901030707 | 74 | 219 | 4.0 | 7.0 | 0.00 | 0.00 | 0.00 | 98 | 1022.4 |
| 20260901030206 | 74 | 227 | 5.0 | 7.0 | 0.00 | 0.00 | 0.00 | 98 | 1022.4 |
| 20260901030023 | 74 | 242 | 5.0 | 7.0 | 0.00 | 0.00 | 0.00 | 98 | 1022.5 |
| 20260901025200 | 74 | 236 | 4.0 | 9.0 | 0.00 | 0.00 | 0.00 | 98 | 1022.5 |
| 20260901025017 | 74 | 223 | 6.0 | 10.0 | 0.00 | 0.00 | 0.00 | 98 | 1022.7 |
| 20260901024156 | 74 | 210 | 7.0 | 10.0 | 0.00 | 0.00 | 0.00 | 97 | 1022.7 |
| 20260901023658 | 74 | 237 | 6.0 | 10.0 | 0.00 | 0.00 | 0.00 | 97 | 1022.7 |
| 20260901023158 | 74 | 220 | 6.0 | 9.0 | 0.00 | 0.00 | 0.00 | 97 | 1022.6 |
| 20260901022658 | 74 | 227 | 6.0 | 9.0 | 0.00 | 0.00 | 0.00 | 97 | 1022.8 |
| 20260901022211 | 74 | 215 | 5.0 | 9.0 | 0.00 | 0.00 | 0.00 | 97 | 1022.7 |
| 20260901021656 | 75 | 213 | 5.0 | 10.0 | 0.00 | 0.00 | 0.00 | 97 | 1022.7 |
| 20260901021155 | 75 | 244 | 6.0 | 10.0 | 0.00 | 0.00 | 0.00 | 97 | 1022.7 |
| 20260901021011 | 75 | 220 | 6.0 | 13.0 | 0.00 | 0.00 | 0.00 | 97 | 1022.7 |
| 20260901020513 | 75 | 246 | 6.0 | 14.0 | 0.00 | 0.00 | 0.00 | 97 | 1022.7 |
| 20260901015656 | 75 | 271 | 4.0 | 14.0 | 0.00 | 0.00 | 0.00 | 97 | 1022.7 |
| 20260901015153 | 75 | 275 | 5.0 | 11.0 | 0.00 | 0.00 | 0.00 | 97 | 1022.8 |
| 20260901014654 | 75 | 267 | 7.0 | 14.0 | 0.00 | 0.00 | 0.00 | 97 | 1022.8 |
| 20260901014152 | 75 | 250 | 7.0 | 14.0 | 0.00 | 0.00 | 0.00 | 97 | 1022.8 |
| 20260901014013 | 75 | 244 | 6.0 | 11.0 | 0.00 | 0.00 | 0.00 | 97 | 1022.8 |
| 20260901013146 | 75 | 296 | 7.0 | 11.0 | 0.00 | 0.00 | 0.00 | 98 | 1022.9 |
| 20260901012644 | 75 | 270 | 3.0 | 11.0 | 0.00 | 0.00 | 0.00 | 98 | 1022.9 |
| 20260901012505 | 75 | 265 | 6.0 | 12.0 | 0.00 | 0.00 | 0.00 | 98 | 1022.9 |
| 20260901011740 | 75 | 273 | 6.0 | 12.0 | 0.00 | 0.00 | 0.00 | 98 | 1022.9 |
| 20260901011005 | 75 | 271 | 8.0 | 13.0 | 0.00 | 0.00 | 0.00 | 98 | 1022.9 |
| 20260901010138 | 74 | 264 | 8.0 | 13.0 | 0.00 | 0.00 | 0.00 | 98 | 1023.0 |
| 20260901005635 | 74 | 278 | 5.0 | 13.0 | 0.00 | 0.00 | 0.00 | 98 | 1022.9 |
| 20260901005136 | 74 | 246 | 7.0 | 13.0 | 0.00 | 0.00 | 0.00 | 98 | 1022.9 |
| 20260901004635 | 74 | 249 | 7.0 | 13.0 | 0.00 | 0.00 | 0.00 | 98 | 1023.1 |
| 20260901004132 | 74 | 281 | 9.0 | 13.0 | 0.00 | 0.00 | 0.00 | 98 | 1023.1 |
| 20260901003632 | 74 | 265 | 7.0 | 12.0 | 0.00 | 0.00 | 0.00 | 98 | 1023.1 |
| 20260901003131 | 74 | 257 | 7.0 | 11.0 | 0.00 | 0.00 | 0.00 | 98 | 1023.0 |
| 20260901002946 | 74 | 264 | 6.0 | 11.0 | 0.00 | 0.00 | 0.00 | 98 | 1023.1 |
| 20260901002447 | 75 | 261 | 6.0 | 11.0 | 0.00 | 0.00 | 0.00 | 98 | 1023.1 |
| 20260901001622 | 75 | 253 | 7.0 | 11.0 | 0.00 | 0.00 | 0.00 | 98 | 1023.1 |
| 20260901001119 | 75 | 260 | 6.0 | 11.0 | 0.00 | 0.00 | 0.00 | 98 | 1023.2 |
| 20260901000929 | 74 | 278 | 8.0 | 12.0 | 0.00 | 0.00 | 0.00 | 98 | 1023.2 |
| 20260901000428 | 75 | 278 | 8.0 | 12.0 | 0.00 | 0.00 | 0.00 | 98 | 1023.3 |
| 20260831235613 | 75 | 267 | 6.0 | 11.0 | 0.00 | 0.00 | 0.00 | 98 | 1023.2 |
| 20260831235114 | 75 | 277 | 6.0 | 11.0 | 0.00 | 0.00 | 0.00 | 98 | 1023.3 |
| 20260831234612 | 75 | 260 | 6.0 | 12.0 | 0.00 | 0.00 | 0.00 | 98 | 1023.3 |
| 20260831234432 | 74 | 247 | 5.0 | 12.0 | 0.00 | 0.00 | 0.00 | 98 | 1023.2 |
| 20260831233607 | 74 | 273 | 7.0 | 12.0 | 0.00 | 0.00 | 0.00 | 98 | 1023.1 |
| 20260831233107 | 74 | 280 | 6.0 | 10.0 | 0.00 | 0.00 | 0.00 | 98 | 1023.1 |
| 20260831232607 | 74 | 258 | 5.0 | 10.0 | 0.00 | 0.00 | 0.00 | 98 | 1023.1 |
| 20260831232109 | 75 | 278 | 6.0 | 11.0 | 0.00 | 0.00 | 0.00 | 98 | 1023.1 |
| 20260831231607 | 75 | 263 | 5.0 | 11.0 | 0.00 | 0.00 | 0.00 | 98 | 1023.1 |
| 20260831231104 | 74 | 251 | 6.0 | 10.0 | 0.00 | 0.00 | 0.00 | 98 | 1023.0 |
| 20260831230604 | 74 | 275 | 6.0 | 11.0 | 0.00 | 0.00 | 0.00 | 98 | 1023.0 |
| 20260831230109 | 74 | 261 | 7.0 | 11.0 | 0.00 | 0.00 | 0.00 | 98 | 1023.1 |
| 20260831225603 | 74 | 263 | 7.0 | 11.0 | 0.00 | 0.00 | 0.00 | 98 | 1023.0 |
| 20260831225103 | 74 | 256 | 6.0 | 10.0 | 0.00 | 0.00 | 0.00 | 97 | 1023.0 |
| 20260831224603 | 74 | 263 | 5.0 | 10.0 | 0.00 | 0.00 | 0.00 | 97 | 1023.0 |
| 20260831224105 | 74 | 267 | 6.0 | 10.0 | 0.00 | 0.00 | 0.00 | 97 | 1023.0 |
| 20260831223602 | 74 | 263 | 6.0 | 10.0 | 0.00 | 0.00 | 0.00 | 97 | 1022.9 |
| 20260831223100 | 74 | 242 | 6.0 | 10.0 | 0.00 | 0.00 | 0.00 | 97 | 1022.9 |
| 20260831222600 | 74 | 271 | 5.0 | 10.0 | 0.00 | 0.00 | 0.00 | 97 | 1022.9 |
| 20260831222416 | 75 | 260 | 6.0 | 10.0 | 0.00 | 0.00 | 0.00 | 97 | 1022.9 |
| 20260831221557 | 75 | 277 | 6.0 | 11.0 | 0.00 | 0.00 | 0.00 | 97 | 1022.8 |
| 20260831221055 | 75 | 223 | 5.0 | 11.0 | 0.00 | 0.00 | 0.00 | 97 | 1022.8 |
| 20260831220550 | 75 | 249 | 4.0 | 7.0 | 0.00 | 0.00 | 0.00 | 97 | 1022.8 |
| 20260831220051 | 75 | 275 | 4.0 | 9.0 | 0.00 | 0.00 | 0.00 | 97 | 1022.8 |
| 20260831215548 | 75 | 263 | 6.0 | 9.0 | 0.00 | 0.00 | 0.00 | 97 | 1022.8 |
| 20260831215050 | 75 | 296 | 6.0 | 10.0 | 0.00 | 0.00 | 0.00 | 97 | 1022.8 |
| 20260831214549 | 75 | 275 | 6.0 | 10.0 | 0.00 | 0.00 | 0.00 | 97 | 1022.7 |
| 20260831214048 | 75 | 260 | 6.0 | 10.0 | 0.00 | 0.00 | 0.00 | 97 | 1022.7 |
| 20260831213902 | 75 | 277 | 7.0 | 10.0 | 0.00 | 0.00 | 0.00 | 97 | 1022.7 |
| 20260831213358 | 75 | 264 | 6.0 | 9.0 | 0.00 | 0.00 | 0.00 | 97 | 1022.7 |
| 20260831212546 | 75 | 274 | 6.0 | 10.0 | 0.00 | 0.00 | 0.00 | 97 | 1022.6 |
| 20260831212048 | 75 | 260 | 7.0 | 10.0 | 0.00 | 0.00 | 0.00 | 97 | 1022.6 |
| 20260831211547 | 75 | 244 | 5.0 | 12.0 | 0.00 | 0.00 | 0.00 | 97 | 1022.5 |
| 20260831211040 | 75 | 257 | 7.0 | 12.0 | 0.00 | 0.00 | 0.00 | 97 | 1022.4 |
| 20260831210847 | 75 | 256 | 6.0 | 11.0 | 0.00 | 0.00 | 0.00 | 97 | 1022.5 |
| 20260831210037 | 75 | 244 | 7.0 | 11.0 | 0.00 | 0.00 | 0.00 | 97 | 1022.4 |
| 20260831205533 | 75 | 250 | 6.0 | 10.0 | 0.00 | 0.00 | 0.00 | 96 | 1022.4 |
| 20260831205034 | 75 | 261 | 6.0 | 9.0 | 0.00 | 0.00 | 0.00 | 96 | 1022.3 |
| 20260831204531 | 75 | 296 | 5.0 | 9.0 | 0.00 | 0.00 | 0.00 | 96 | 1022.3 |
| 20260831204027 | 75 | 270 | 5.0 | 11.0 | 0.00 | 0.00 | 0.00 | 96 | 1022.2 |
| 20260831203526 | 75 | 280 | 5.0 | 11.0 | 0.00 | 0.00 | 0.00 | 96 | 1022.3 |
| 20260831203028 | 75 | 261 | 7.0 | 12.0 | 0.00 | 0.00 | 0.00 | 96 | 1022.3 |
| 20260831202526 | 75 | 261 | 8.0 | 12.0 | 0.00 | 0.00 | 0.00 | 96 | 1022.2 |
| 20260831202024 | 75 | 251 | 8.0 | 11.0 | 0.00 | 0.00 | 0.00 | 96 | 1022.2 |
| 20260831201525 | 75 | 268 | 7.0 | 11.0 | 0.00 | 0.00 | 0.00 | 96 | 1022.1 |
| 20260831201023 | 75 | 263 | 6.0 | 11.0 | 0.00 | 0.00 | 0.00 | 96 | 1022.2 |
| 20260831200518 | 75 | 253 | 7.0 | 11.0 | 0.00 | 0.00 | 0.00 | 96 | 1022.1 |
| 20260831200057 | 75 | 205 | 7.0 | 11.0 | 0.00 | 0.00 | 0.00 | 96 | 1022.2 |
| 20260831195006 | 75 | 270 | 8.0 | 13.0 | 0.00 | 0.00 | 0.00 | 96 | 1022.1 |
| 20260831194505 | 75 | 237 | 6.0 | 13.0 | 0.00 | 0.00 | 0.00 | 96 | 1022.1 |
| 20260831194005 | 75 | 260 | 7.0 | 13.0 | 0.00 | 0.00 | 0.00 | 96 | 1022.0 |
| 20260831193503 | 75 | 240 | 8.0 | 13.0 | 0.00 | 0.00 | 0.00 | 96 | 1022.0 |
| 20260831193000 | 75 | 239 | 7.0 | 12.0 | 0.00 | 0.00 | 0.00 | 96 | 1022.0 |
| 20260831192457 | 75 | 268 | 6.0 | 12.0 | 0.00 | 0.00 | 0.00 | 96 | 1022.0 |
| 20260831192326 | 75 | 270 | 7.0 | 12.0 | 0.00 | 0.00 | 0.00 | 95 | 1022.0 |
| 20260831191449 | 75 | 263 | 8.0 | 12.0 | 0.00 | 0.00 | 0.00 | 95 | 1022.0 |
| 20260831190947 | 75 | 244 | 8.0 | 13.0 | 0.00 | 0.00 | 0.00 | 95 | 1021.9 |
| 20260831190447 | 76 | 280 | 8.0 | 13.0 | 0.00 | 0.00 | 0.00 | 95 | 1021.9 |
| 20260831185946 | 76 | 250 | 9.0 | 13.0 | 0.00 | 0.00 | 0.00 | 95 | 1021.9 |
| 20260831185441 | 76 | 249 | 8.0 | 14.0 | 0.00 | 0.00 | 0.00 | 95 | 1021.9 |
| 20260831184937 | 76 | 250 | 8.0 | 14.0 | 0.00 | 0.00 | 0.00 | 95 | 1021.9 |
| 20260831184439 | 76 | 233 | 9.0 | 14.0 | 0.00 | 0.00 | 0.00 | 94 | 1021.9 |
| 20260831183936 | 76 | 247 | 10.0 | 14.0 | 0.00 | 0.00 | 0.00 | 94 | 1021.9 |
| 20260831183438 | 76 | 247 | 10.0 | 14.0 | 0.00 | 0.00 | 0.00 | 94 | 1022.0 |
| 20260831183257 | 77 | 249 | 10.0 | 14.0 | 0.00 | 0.00 | 0.00 | 94 | 1021.9 |
| 20260831182435 | 77 | 284 | 9.0 | 16.0 | 0.00 | 0.00 | 0.00 | 94 | 1022.0 |
| 20260831182253 | 76 | 247 | 11.0 | 16.0 | 0.00 | 0.00 | 0.00 | 94 | 1022.0 |
| 20260831181434 | 76 | 244 | 10.0 | 15.0 | 0.00 | 0.00 | 0.00 | 94 | 1022.0 |
| 20260831180936 | 76 | 277 | 9.0 | 16.0 | 0.00 | 0.00 | 0.00 | 94 | 1022.0 |
| 20260831180434 | 76 | 219 | 10.0 | 17.0 | 0.00 | 0.00 | 0.00 | 94 | 1021.9 |
| 20260831175933 | 76 | 251 | 9.0 | 17.0 | 0.00 | 0.00 | 0.00 | 94 | 1022.0 |
| 20260831175432 | 76 | 270 | 9.0 | 15.0 | 0.00 | 0.00 | 0.00 | 94 | 1021.9 |
| 20260831174933 | 76 | 270 | 11.0 | 16.0 | 0.00 | 0.00 | 0.00 | 94 | 1022.0 |
| 20260831174433 | 76 | 267 | 11.0 | 16.0 | 0.00 | 0.00 | 0.00 | 94 | 1022.0 |
| 20260831173934 | 77 | 261 | 10.0 | 14.0 | 0.00 | 0.00 | 0.00 | 94 | 1022.0 |
| 20260831173434 | 77 | 256 | 9.0 | 14.0 | 0.00 | 0.00 | 0.00 | 94 | 1022.1 |
| 20260831172928 | 76 | 268 | 10.0 | 15.0 | 0.00 | 0.00 | 0.00 | 94 | 1022.0 |
| 20260831172427 | 77 | 271 | 11.0 | 15.0 | 0.00 | 0.00 | 0.00 | 94 | 1022.1 |
| 20260831172028 | 77 | 251 | 12.0 | 15.0 | 0.00 | 0.00 | 0.00 | 94 | 1022.0 |
| 20260831170920 | 76 | 267 | 10.0 | 14.0 | 0.00 | 0.00 | 0.00 | 94 | 1022.0 |
| 20260831170422 | 77 | 236 | 10.0 | 14.0 | 0.00 | 0.00 | 0.00 | 93 | 1022.1 |
| 20260831165917 | 77 | 258 | 10.0 | 14.0 | 0.00 | 0.00 | 0.00 | 93 | 1022.0 |
| 20260831165415 | 77 | 258 | 10.0 | 14.0 | 0.00 | 0.00 | 0.00 | 93 | 1022.1 |
| 20260831164916 | 78 | 249 | 8.0 | 15.0 | 0.00 | 0.00 | 0.00 | 93 | 1022.0 |
| 20260831164411 | 77 | 258 | 8.0 | 16.0 | 0.00 | 0.00 | 0.00 | 93 | 1022.0 |
| 20260831163904 | 77 | 244 | 10.0 | 17.0 | 0.00 | 0.00 | 0.00 | 92 | 1021.9 |
| 20260831163511 | 77 | 250 | 12.0 | 17.0 | 0.00 | 0.00 | 0.00 | 93 | 1021.9 |
| 20260831162404 | 77 | 261 | 10.0 | 16.0 | 0.00 | 0.00 | 0.00 | 92 | 1021.8 |
| 20260831161904 | 78 | 250 | 11.0 | 16.0 | 0.00 | 0.00 | 0.00 | 92 | 1021.9 |
| 20260831161403 | 78 | 243 | 10.0 | 15.0 | 0.00 | 0.00 | 0.00 | 92 | 1022.0 |
| 20260831160902 | 78 | 242 | 10.0 | 16.0 | 0.00 | 0.00 | 0.00 | 93 | 1022.0 |
| 20260831160402 | 77 | 246 | 10.0 | 16.0 | 0.00 | 0.00 | 0.00 | 93 | 1022.0 |
| 20260831160217 | 77 | 275 | 10.0 | 16.0 | 0.00 | 0.00 | 0.00 | 93 | 1022.1 |
| 20260831155400 | 77 | 275 | 10.0 | 15.0 | 0.00 | 0.00 | 0.00 | 93 | 1022.2 |
| 20260831154901 | 77 | 254 | 11.0 | 15.0 | 0.00 | 0.00 | 0.00 | 93 | 1022.1 |
| 20260831154358 | 77 | 246 | 10.0 | 15.0 | 0.00 | 0.00 | 0.00 | 93 | 1022.1 |
| 20260831153855 | 77 | 270 | 10.0 | 14.0 | 0.00 | 0.00 | 0.00 | 93 | 1022.2 |
| 20260831153354 | 77 | 258 | 10.0 | 14.0 | 0.00 | 0.00 | 0.00 | 93 | 1022.2 |
| 20260831152853 | 77 | 251 | 9.0 | 14.0 | 0.00 | 0.00 | 0.00 | 93 | 1022.3 |
| 20260831152350 | 77 | 257 | 8.0 | 13.0 | 0.00 | 0.00 | 0.00 | 94 | 1022.3 |
| 20260831151849 | 76 | 281 | 10.0 | 13.0 | 0.00 | 0.00 | 0.00 | 93 | 1022.3 |
| 20260831151345 | 77 | 219 | 9.0 | 13.0 | 0.00 | 0.00 | 0.00 | 93 | 1022.2 |
| 20260831151159 | 76 | 263 | 9.0 | 13.0 | 0.00 | 0.00 | 0.00 | 94 | 1022.3 |
| 20260831150654 | 76 | 246 | 10.0 | 13.0 | 0.00 | 0.00 | 0.00 | 93 | 1022.3 |
| 20260831145839 | 76 | 254 | 8.0 | 13.0 | 0.00 | 0.00 | 0.00 | 94 | 1022.3 |
| 20260831145339 | 76 | 230 | 9.0 | 13.0 | 0.00 | 0.00 | 0.00 | 94 | 1022.3 |
| 20260831144839 | 76 | 258 | 10.0 | 14.0 | 0.00 | 0.00 | 0.00 | 94 | 1022.4 |
| 20260831144338 | 76 | 253 | 10.0 | 14.0 | 0.00 | 0.00 | 0.00 | 94 | 1022.3 |
| 20260831143837 | 76 | 257 | 10.0 | 13.0 | 0.00 | 0.00 | 0.00 | 94 | 1022.3 |
| 20260831143338 | 76 | 244 | 8.0 | 12.0 | 0.00 | 0.00 | 0.00 | 94 | 1022.2 |
| 20260831142941 | 76 | 260 | 9.0 | 12.0 | 0.00 | 0.00 | 0.00 | 93 | 1022.2 |
| 20260831141833 | 76 | 261 | 8.0 | 11.0 | 0.00 | 0.00 | 0.00 | 93 | 1022.3 |
| 20260831141332 | 76 | 237 | 8.0 | 11.0 | 0.00 | 0.00 | 0.00 | 93 | 1022.3 |
| 20260831140834 | 76 | 242 | 7.0 | 11.0 | 0.00 | 0.00 | 0.00 | 93 | 1022.3 |
| 20260831140333 | 76 | 236 | 8.0 | 10.0 | 0.00 | 0.00 | 0.00 | 93 | 1022.4 |
| 20260831135831 | 76 | 249 | 6.0 | 10.0 | 0.00 | 0.00 | 0.00 | 93 | 1022.4 |
| 20260831135659 | 76 | 244 | 8.0 | 11.0 | 0.00 | 0.00 | 0.00 | 92 | 1022.3 |
| 20260831134830 | 76 | 237 | 9.0 | 11.0 | 0.00 | 0.00 | 0.00 | 92 | 1022.3 |
| 20260831134332 | 76 | 244 | 8.0 | 12.0 | 0.00 | 0.00 | 0.00 | 92 | 1022.4 |
| 20260831133831 | 76 | 229 | 8.0 | 14.0 | 0.00 | 0.00 | 0.00 | 92 | 1022.4 |
| 20260831133331 | 76 | 249 | 8.0 | 14.0 | 0.00 | 0.00 | 0.00 | 92 | 1022.4 |
| 20260831132833 | 76 | 240 | 6.0 | 12.0 | 0.00 | 0.00 | 0.00 | 92 | 1022.5 |
| 20260831132331 | 76 | 251 | 7.0 | 13.0 | 0.00 | 0.00 | 0.00 | 92 | 1022.5 |
| 20260831131832 | 76 | 247 | 8.0 | 13.0 | 0.00 | 0.00 | 0.00 | 92 | 1022.4 |
| 20260831131332 | 76 | 219 | 10.0 | 13.0 | 0.00 | 0.00 | 0.00 | 92 | 1022.4 |
| 20260831130832 | 76 | 244 | 9.0 | 12.0 | 0.00 | 0.00 | 0.00 | 93 | 1022.4 |
| 20260831130331 | 76 | 232 | 9.0 | 12.0 | 0.00 | 0.00 | 0.00 | 92 | 1022.5 |
| 20260831125832 | 76 | 237 | 9.0 | 12.0 | 0.00 | 0.00 | 0.00 | 93 | 1022.5 |
| 20260831125709 | 76 | 251 | 9.0 | 13.0 | 0.00 | 0.00 | 0.00 | 93 | 1022.5 |
| 20260831125154 | 76 | 250 | 10.0 | 13.0 | 0.00 | 0.00 | 0.00 | 92 | 1022.6 |
| 20260831124333 | 76 | 247 | 9.0 | 13.0 | 0.00 | 0.00 | 0.00 | 92 | 1022.5 |
| 20260831123833 | 76 | 250 | 10.0 | 13.0 | 0.00 | 0.00 | 0.00 | 92 | 1022.5 |
| 20260831123333 | 76 | 250 | 9.0 | 13.0 | 0.00 | 0.00 | 0.00 | 92 | 1022.5 |
| 20260831122833 | 76 | 249 | 9.0 | 15.0 | 0.00 | 0.00 | 0.00 | 92 | 1022.5 |
| 20260831122331 | 76 | 229 | 10.0 | 15.0 | 0.00 | 0.00 | 0.00 | 92 | 1022.6 |
| 20260831121832 | 76 | 240 | 10.0 | 14.0 | 0.00 | 0.00 | 0.00 | 92 | 1022.5 |
| 20260831121713 | 76 | 247 | 10.0 | 14.0 | 0.00 | 0.00 | 0.00 | 92 | 1022.6 |
| 20260831120828 | 76 | 256 | 9.0 | 14.0 | 0.00 | 0.00 | 0.00 | 92 | 1022.4 |
| 20260831120750 | 76 | 244 | 10.0 | 13.0 | 0.00 | 0.00 | 0.00 | 91 | 1022.5 |
| 20260831115827 | 76 | 251 | 9.0 | 14.0 | 0.00 | 0.00 | 0.00 | 91 | 1022.5 |
| 20260831115324 | 76 | 263 | 11.0 | 14.0 | 0.00 | 0.00 | 0.00 | 91 | 1022.4 |
| 20260831114823 | 76 | 282 | 9.0 | 14.0 | 0.00 | 0.00 | 0.00 | 90 | 1022.5 |
| 20260831114321 | 77 | 242 | 9.0 | 14.0 | 0.00 | 0.00 | 0.00 | 91 | 1022.4 |
| 20260831113822 | 76 | 260 | 9.0 | 14.0 | 0.00 | 0.00 | 0.00 | 91 | 1022.5 |
| 20260831113320 | 76 | 237 | 10.0 | 14.0 | 0.00 | 0.00 | 0.00 | 90 | 1022.3 |
| 20260831112821 | 76 | 265 | 8.0 | 12.0 | 0.00 | 0.00 | 0.00 | 92 | 1022.3 |
| 20260831112318 | 76 | 247 | 7.0 | 12.0 | 0.00 | 0.00 | 0.00 | 91 | 1022.2 |
| 20260831111814 | 76 | 270 | 7.0 | 12.0 | 0.00 | 0.00 | 0.00 | 92 | 1022.2 |
| 20260831111312 | 76 | 270 | 7.0 | 13.0 | 0.00 | 0.00 | 0.00 | 92 | 1022.3 |
| 20260831110810 | 76 | 256 | 9.0 | 14.0 | 0.00 | 0.00 | 0.00 | 91 | 1022.2 |
| 20260831110307 | 76 | 261 | 9.0 | 14.0 | 0.00 | 0.00 | 0.00 | 91 | 1022.2 |
| 20260831105807 | 76 | 260 | 8.0 | 13.0 | 0.00 | 0.00 | 0.00 | 92 | 1022.2 |
| 20260831105306 | 76 | 264 | 9.0 | 13.0 | 0.00 | 0.00 | 0.00 | 91 | 1022.1 |
| 20260831104906 | 76 | 256 | 9.0 | 13.0 | 0.00 | 0.00 | 0.00 | 91 | 1022.2 |
| 20260831104127 | 76 | 236 | 10.0 | 14.0 | 0.00 | 0.00 | 0.00 | 91 | 1022.1 |
| 20260831103304 | 76 | 250 | 8.0 | 14.0 | 0.00 | 0.00 | 0.00 | 91 | 1022.1 |
| 20260831102803 | 76 | 261 | 11.0 | 16.0 | 0.00 | 0.00 | 0.00 | 90 | 1022.1 |
| 20260831102305 | 76 | 267 | 11.0 | 16.0 | 0.00 | 0.00 | 0.00 | 90 | 1022.0 |
| 20260831101803 | 76 | 260 | 9.0 | 14.0 | 0.00 | 0.00 | 0.00 | 90 | 1022.1 |
| 20260831101646 | 76 | 237 | 9.0 | 14.0 | 0.00 | 0.00 | 0.00 | 90 | 1022.1 |
| 20260831100802 | 76 | 264 | 10.0 | 15.0 | 0.00 | 0.00 | 0.00 | 90 | 1022.1 |
| 20260831100300 | 76 | 239 | 10.0 | 15.0 | 0.00 | 0.00 | 0.00 | 89 | 1022.1 |
| 20260831095800 | 76 | 274 | 11.0 | 15.0 | 0.00 | 0.00 | 0.00 | 90 | 1022.2 |
| 20260831095258 | 76 | 264 | 8.0 | 14.0 | 0.00 | 0.00 | 0.00 | 90 | 1022.2 |
| 20260831095111 | 76 | 265 | 10.0 | 14.0 | 0.00 | 0.00 | 0.00 | 89 | 1022.2 |
| 20260831094255 | 76 | 258 | 10.0 | 14.0 | 0.00 | 0.00 | 0.00 | 90 | 1022.3 |
| 20260831093752 | 76 | 260 | 7.0 | 14.0 | 0.00 | 0.00 | 0.00 | 90 | 1022.2 |
| 20260831093247 | 75 | 260 | 10.0 | 14.0 | 0.00 | 0.00 | 0.00 | 90 | 1022.3 |
| 20260831092749 | 75 | 284 | 8.0 | 15.0 | 0.00 | 0.00 | 0.00 | 90 | 1022.3 |
| 20260831092247 | 75 | 264 | 9.0 | 15.0 | 0.00 | 0.00 | 0.00 | 90 | 1022.2 |
| 20260831091745 | 75 | 260 | 8.0 | 15.0 | 0.00 | 0.00 | 0.00 | 91 | 1022.2 |
| 20260831091239 | 75 | 260 | 9.0 | 15.0 | 0.00 | 0.00 | 0.00 | 90 | 1022.1 |
| 20260831090739 | 75 | 273 | 7.0 | 11.0 | 0.00 | 0.00 | 0.00 | 90 | 1022.1 |
| 20260831090237 | 75 | 249 | 6.0 | 12.0 | 0.00 | 0.00 | 0.00 | 91 | 1021.9 |
| 20260831090221 | 74 | 243 | 9.0 | 13.0 | 0.00 | 0.00 | 0.00 | 90 | 1021.8 |
| 20260831084732 | 74 | 292 | 8.0 | 11.0 | 0.00 | 0.00 | 0.00 | 91 | 1021.8 |
| 20260831084232 | 74 | 268 | 6.0 | 11.0 | 0.00 | 0.00 | 0.00 | 91 | 1021.9 |
| 20260831084051 | 74 | 257 | 7.0 | 10.0 | 0.00 | 0.00 | 0.00 | 92 | 1021.9 |
| 20260831083231 | 74 | 265 | 6.0 | 12.0 | 0.00 | 0.00 | 0.00 | 92 | 1021.8 |
| 20260831082732 | 74 | 263 | 6.0 | 15.0 | 0.00 | 0.01 | 0.00 | 92 | 1021.8 |
| 20260831082538 | 74 | 267 | 9.0 | 15.0 | 0.00 | 0.01 | 0.00 | 92 | 1021.8 |
| 20260831081732 | 74 | 281 | 7.0 | 11.0 | 0.00 | 0.01 | 0.00 | 92 | 1021.7 |
| 20260831081230 | 74 | 280 | 7.0 | 11.0 | 0.00 | 0.01 | 0.00 | 93 | 1021.6 |
| 20260831080731 | 73 | 270 | 6.0 | 10.0 | 0.00 | 0.01 | 0.00 | 93 | 1021.7 |
| 20260831080549 | 73 | 298 | 7.0 | 12.0 | 0.00 | 0.01 | 0.00 | 93 | 1021.6 |
| 20260831075230 | 73 | 267 | 7.0 | 11.0 | 0.00 | 0.05 | 0.00 | 93 | 1021.5 |
| 20260831074729 | 73 | 296 | 7.0 | 11.0 | 0.00 | 0.05 | 0.00 | 93 | 1021.5 |
| 20260831074228 | 73 | 308 | 6.0 | 10.0 | 0.00 | 0.06 | 0.00 | 93 | 1021.4 |
| 20260831073729 | 73 | 294 | 5.0 | 10.0 | 0.00 | 0.06 | 0.00 | 93 | 1021.4 |
| 20260831073228 | 73 | 275 | 7.0 | 10.0 | 0.00 | 0.06 | 0.00 | 93 | 1021.4 |
| 20260831072727 | 73 | 298 | 7.0 | 11.0 | 0.00 | 0.06 | 0.00 | 93 | 1021.3 |